Weather History for KHRI - December, 2012

Change the Weather History Date:

Wednesday, December 5, 2012

  Actual Average Record
Temperature  
Mean Temperature 42 °F -  
Max Temperature 52 °F 44 °F 63 °F (1946)
Min Temperature 32 °F 29 °F 1 °F (2013)
Degree Days  
Heating Degree Days 23    
Moisture  
Dew Point 34 °F    
Average Humidity 70    
Maximum Humidity 88    
Minimum Humidity 44    
Precipitation  
Precipitation 0.01 in - - ()
Sea Level Pressure  
Sea Level Pressure 30.12 in    
Wind  
Wind Speed 11 mph (SW)    
Max Wind Speed 16 mph    
Max Gust Speed 29 mph    
Visibility 10 miles    
Events Rain    
Averages and records for this station are not official NWS values.
T = Trace of Precipitation, MM = Missing Value Source: NWS Daily Summary

Daily Weather History Graph

Daily Weather History Graph

Search for Another Location

Airport or City:

Trip Planner

Search our weather history database for the weather conditions in past years. The results will help you decide how hot, cold, wet, or windy it might be!

Date:

Astronomy

Dec. 05, 2012 Rise Set
Actual Time 7:22 AM PST 4:12 PM PST
Civil Twilight 6:48 AM PST 4:46 PM PST
Nautical Twilight 6:11 AM PST 5:24 PM PST
Astronomical Twilight 5:35 AM PST 6:00 PM PST
Moon 11:24 PM PST (12/5) 11:34 AM PST (12/5)
Length of Visible Light 9h 57m
Length of Day
8h 49m
Waning Gibbous, 58% of the Moon is Illuminated
Dec 5
Waning Gibbous
Dec 6
Last Quarter
Dec 13
New
Dec 19
First Quarter
Dec 28
Full

Hourly Weather History & Observations

Time (PST) Temp. Windchill Dew Point Humidity Pressure Visibility Wind Dir Wind Speed Gust Speed Precip Events Conditions
12:53 AM 52.0 °F - 44.1 °F 74% 29.83 in 10.0 mi WSW 12.7 mph 28.8 mph N/A   Overcast
1:53 AM 50.0 °F - 45.0 °F 83% 29.87 in 10.0 mi WSW 12.7 mph 20.7 mph 0.01 in Rain Light Rain
2:53 AM 50.0 °F - 42.1 °F 74% 29.91 in 10.0 mi WSW 11.5 mph - 0.00 in   Overcast
3:53 AM 48.9 °F - 39.9 °F 71% 29.95 in 10.0 mi WSW 12.7 mph 20.7 mph N/A   Overcast
4:53 AM 46.9 °F - 37.0 °F 68% 29.99 in 10.0 mi WSW 12.7 mph - N/A   Partly Cloudy
6:53 AM 44.1 °F 37.1 °F 34.0 °F 68% 30.06 in 10.0 mi SW 15.0 mph - N/A   Clear
7:53 AM 41.0 °F 35.2 °F 34.0 °F 76% 30.11 in 10.0 mi SSW 9.2 mph - N/A   Clear
8:53 AM 44.1 °F 38.1 °F 35.1 °F 71% 30.13 in 10.0 mi SW 11.5 mph - N/A   Clear
9:53 AM 46.0 °F 39.3 °F 34.0 °F 63% 30.16 in 10.0 mi SW 16.1 mph - N/A   Clear
10:53 AM 48.9 °F - 35.1 °F 59% 30.17 in 10.0 mi WSW 12.7 mph 20.7 mph N/A   Clear
11:53 AM 50.0 °F - 32.0 °F 50% 30.17 in 10.0 mi WSW 13.8 mph 20.7 mph N/A   Clear
12:53 PM 50.0 °F - 32.0 °F 50% 30.17 in 10.0 mi SW 16.1 mph 24.2 mph N/A   Clear
1:53 PM 51.1 °F - 30.0 °F 44% 30.17 in 10.0 mi WSW 16.1 mph 24.2 mph N/A   Clear
2:53 PM 48.9 °F - 30.9 °F 50% 30.18 in 10.0 mi WSW 12.7 mph - N/A   Clear
4:53 PM 41.0 °F 35.2 °F 32.0 °F 70% 30.19 in 10.0 mi SSW 9.2 mph - N/A   Clear
5:53 PM 37.0 °F 31.6 °F 30.0 °F 76% 30.21 in 10.0 mi SSW 6.9 mph - N/A   Clear
6:53 PM 37.0 °F 31.0 °F 30.9 °F 79% 30.21 in 10.0 mi South 8.1 mph - N/A   Clear
7:53 PM 37.9 °F 33.5 °F 30.9 °F 76% 30.21 in 10.0 mi SSW 5.8 mph - N/A   Clear
8:53 PM 35.1 °F 31.0 °F 30.0 °F 82% 30.21 in 10.0 mi SE 4.6 mph - N/A   Clear
9:53 PM 35.1 °F - 30.0 °F 82% 30.22 in 10.0 mi Calm Calm - N/A   Clear
10:53 PM 32.0 °F 27.5 °F 28.9 °F 88% 30.22 in 10.0 mi South 4.6 mph - N/A   Clear
11:53 PM 32.0 °F 28.7 °F 28.9 °F 88% 30.20 in 10.0 mi SSE 3.5 mph - N/A   Clear